Location: Acton
(51.4942°N, 0.2232°W)
Time: 12:54:12
(UTC+00:00)

SPOT 3 Rocket - Pass Details

Date: 18 September 2020
Orbit: 779 x 794 km, 98.8° (Epoch: 22 October)

Event Time Altitude Azimuth Distance (km) Brightness Sun altitude
Exits shadow 20:03:39 25° 155° (SSE) 1,532 4.6 -18.2°
Maximum altitude 20:06:42 78° 72° (ENE) 802 3.4 -18.6°
Drops below altitude 10° 20:11:52 10° 347° (NNW) 2,347 6.6 -19.3°
Sets 20:14:12 0° 346° (NNW) 3,280 7.4 -19.6°
